Time,TemperatureF,DewpointF,PressureIn,WindDirection,WindDirectionDegrees,WindSpeedMPH,WindSpeedGustMPH,Humidity,HourlyPrecipIn,Conditions,Clouds,dailyrainin,SoftwareType,DateUTC
2013-06-29 00:02:00,70.0,61.0,29.88,West,268,0.0,-999.0,73,-99.99,,,-99.99,,2013-06-29 07:02:00,
2013-06-29 00:12:00,69.0,61.0,29.88,West,268,0.0,-999.0,76,-99.99,,,-99.99,,2013-06-29 07:12:00,
2013-06-29 00:33:00,69.0,61.0,29.88,West,268,0.0,-999.0,76,-99.99,,,-99.99,,2013-06-29 07:33:00,
2013-06-29 00:43:00,68.0,61.0,29.88,West,269,0.0,-999.0,77,-99.99,,,-99.99,,2013-06-29 07:43:00,
2013-06-29 00:53:00,68.0,61.0,29.88,West,269,0.0,-999.0,78,-99.99,,,-99.99,,2013-06-29 07:53:00,
2013-06-29 01:01:00,68.0,61.0,29.88,West,269,0.0,-999.0,78,-99.99,,,-99.99,,2013-06-29 08:01:00,
2013-06-29 01:11:00,67.0,60.0,29.88,West,269,0.0,-999.0,79,-99.99,,,-99.99,,2013-06-29 08:11:00,
2013-06-29 01:21:00,67.0,60.0,29.88,West,268,0.0,-999.0,79,-99.99,,,-99.99,,2013-06-29 08:21:00,
2013-06-29 01:33:00,67.0,60.0,29.88,West,268,0.0,-999.0,79,-99.99,,,-99.99,,2013-06-29 08:33:00,
2013-06-29 01:43:00,66.0,60.0,29.88,West,268,0.0,-999.0,80,-99.99,,,-99.99,,2013-06-29 08:43:00,
2013-06-29 01:52:00,66.0,60.0,29.88,West,268,0.0,-999.0,80,-99.99,,,-99.99,,2013-06-29 08:52:00,
2013-06-29 02:02:00,66.0,60.0,29.88,West,268,0.0,-999.0,80,-99.99,,,-99.99,,2013-06-29 09:02:00,
2013-06-29 02:12:00,66.0,60.0,29.87,West,268,0.0,-999.0,80,-99.99,,,-99.99,,2013-06-29 09:12:00,
2013-06-29 02:22:00,66.0,60.0,29.87,West,268,0.0,-999.0,81,-99.99,,,-99.99,,2013-06-29 09:22:00,
2013-06-29 02:33:00,66.0,60.0,29.87,West,268,0.0,-999.0,81,-99.99,,,-99.99,,2013-06-29 09:33:00,
2013-06-29 02:42:00,65.0,59.0,29.86,West,268,0.0,-999.0,81,-99.99,,,-99.99,,2013-06-29 09:42:00,
2013-06-29 02:53:00,65.0,59.0,29.86,West,268,0.0,-999.0,81,-99.99,,,-99.99,,2013-06-29 09:53:00,
2013-06-29 03:01:00,65.0,59.0,29.86,West,268,0.0,-999.0,81,-99.99,,,-99.99,,2013-06-29 10:01:00,
2013-06-29 03:11:00,65.0,59.0,29.85,West,268,0.0,-999.0,82,-99.99,,,-99.99,,2013-06-29 10:11:00,
2013-06-29 03:33:00,65.0,59.0,29.85,West,268,0.0,-999.0,82,-99.99,,,-99.99,,2013-06-29 10:33:00,
2013-06-29 03:42:00,65.0,59.0,29.85,West,268,0.0,-999.0,82,-99.99,,,-99.99,,2013-06-29 10:42:00,
2013-06-29 03:52:00,65.0,59.0,29.85,West,268,0.0,-999.0,82,-99.99,,,-99.99,,2013-06-29 10:52:00,
2013-06-29 04:01:00,65.0,59.0,29.85,West,268,0.0,-999.0,82,-99.99,,,-99.99,,2013-06-29 11:01:00,
2013-06-29 04:11:00,65.0,59.0,29.85,West,268,0.0,-999.0,82,-99.99,,,-99.99,,2013-06-29 11:11:00,
2013-06-29 04:23:00,65.0,59.0,29.85,West,269,0.0,-999.0,82,-99.99,,,-99.99,,2013-06-29 11:23:00,
2013-06-29 04:33:00,65.0,59.0,29.85,West,269,0.0,-999.0,82,-99.99,,,-99.99,,2013-06-29 11:33:00,
2013-06-29 04:43:00,64.0,58.0,29.85,West,268,0.0,-999.0,82,-99.99,,,-99.99,,2013-06-29 11:43:00,
2013-06-29 04:53:00,64.0,58.0,29.85,West,269,0.0,-999.0,82,-99.99,,,-99.99,,2013-06-29 11:53:00,
2013-06-29 05:02:00,64.0,58.0,29.85,West,269,0.0,-999.0,82,-99.99,,,-99.99,,2013-06-29 12:02:00,
2013-06-29 05:11:00,64.0,58.0,29.85,West,269,0.0,-999.0,82,-99.99,,,-99.99,,2013-06-29 12:11:00,
2013-06-29 05:22:00,64.0,59.0,29.85,West,269,0.0,-999.0,83,-99.99,,,-99.99,,2013-06-29 12:22:00,
2013-06-29 05:34:00,64.0,59.0,29.85,West,269,0.0,-999.0,83,-99.99,,,-99.99,,2013-06-29 12:34:00,
2013-06-29 05:43:00,64.0,59.0,29.85,West,268,0.0,-999.0,83,-99.99,,,-99.99,,2013-06-29 12:43:00,
2013-06-29 05:52:00,64.0,59.0,29.85,West,268,0.0,-999.0,83,-99.99,,,-99.99,,2013-06-29 12:52:00,
2013-06-29 06:02:00,64.0,59.0,29.85,West,268,0.0,-999.0,83,-99.99,,,-99.99,,2013-06-29 13:02:00,
2013-06-29 06:34:00,63.0,58.0,29.85,West,268,0.0,-999.0,84,-99.99,,,-99.99,,2013-06-29 13:34:00,
2013-06-29 06:43:00,63.0,58.0,29.85,West,268,0.0,-999.0,84,-99.99,,,-99.99,,2013-06-29 13:43:00,
2013-06-29 06:53:00,64.0,59.0,29.85,West,269,0.0,-999.0,84,-99.99,,,-99.99,,2013-06-29 13:53:00,
2013-06-29 07:02:00,64.0,59.0,29.85,West,269,0.0,-999.0,84,-99.99,,,-99.99,,2013-06-29 14:02:00,
2013-06-29 07:12:00,65.0,60.0,29.85,West,268,0.0,-999.0,83,-99.99,,,-99.99,,2013-06-29 14:12:00,
2013-06-29 07:23:00,65.0,60.0,29.85,West,268,0.0,-999.0,83,-99.99,,,-99.99,,2013-06-29 14:23:00,
2013-06-29 07:33:00,65.0,59.0,29.85,West,269,0.0,-999.0,82,-99.99,,,-99.99,,2013-06-29 14:33:00,
2013-06-29 07:44:00,67.0,60.0,29.85,West,268,0.0,-999.0,78,-99.99,,,-99.99,,2013-06-29 14:44:00,
2013-06-29 07:53:00,69.0,61.0,29.85,West,269,0.0,-999.0,75,-99.99,,,-99.99,,2013-06-29 14:53:00,
2013-06-29 08:01:00,69.0,61.0,29.85,West,269,0.0,-999.0,75,-99.99,,,-99.99,,2013-06-29 15:01:00,
2013-06-29 08:11:00,70.0,61.0,29.85,West,269,0.0,-999.0,74,-99.99,,,-99.99,,2013-06-29 15:11:00,
2013-06-29 08:21:00,70.0,61.0,29.85,West,269,0.0,-999.0,74,-99.99,,,-99.99,,2013-06-29 15:21:00,
2013-06-29 08:33:00,71.0,61.0,29.86,West,268,0.0,-999.0,71,-99.99,,,-99.99,,2013-06-29 15:33:00,
2013-06-29 08:42:00,73.0,62.0,29.85,West,268,0.0,-999.0,68,-99.99,,,-99.99,,2013-06-29 15:42:00,
2013-06-29 08:53:00,75.0,62.0,29.85,West,268,0.0,-999.0,65,-99.99,,,-99.99,,2013-06-29 15:53:00,
2013-06-29 09:01:00,75.0,62.0,29.85,West,268,0.0,-999.0,65,-99.99,,,-99.99,,2013-06-29 16:01:00,
2013-06-29 09:12:00,77.0,63.0,29.85,West,269,0.0,-999.0,61,-99.99,,,-99.99,,2013-06-29 16:12:00,
2013-06-29 09:22:00,77.0,63.0,29.85,West,269,0.0,-999.0,61,-99.99,,,-99.99,,2013-06-29 16:22:00,
2013-06-29 09:33:00,79.0,63.0,29.85,West,268,0.0,-999.0,59,-99.99,,,-99.99,,2013-06-29 16:33:00,
2013-06-29 09:43:00,80.0,63.0,29.85,West,268,0.0,-999.0,56,-99.99,,,-99.99,,2013-06-29 16:43:00,
2013-06-29 09:53:00,81.0,64.0,29.85,West,264,2.0,-999.0,57,-99.99,,,-99.99,,2013-06-29 16:53:00,
2013-06-29 10:01:00,81.0,64.0,29.85,West,264,2.0,-999.0,57,-99.99,,,-99.99,,2013-06-29 17:01:00,
2013-06-29 10:11:00,82.0,65.0,29.84,West,263,1.0,-999.0,56,-99.99,,,-99.99,,2013-06-29 17:11:00,
2013-06-29 10:22:00,83.0,64.0,29.84,West,263,1.0,-999.0,52,-99.99,,,-99.99,,2013-06-29 17:22:00,
2013-06-29 10:33:00,83.0,64.0,29.84,West,263,1.0,-999.0,52,-99.99,,,-99.99,,2013-06-29 17:33:00,
2013-06-29 10:42:00,85.0,64.0,29.84,West,263,0.0,-999.0,50,-99.99,,,-99.99,,2013-06-29 17:42:00,
2013-06-29 10:52:00,86.0,65.0,29.84,West,260,1.0,-999.0,49,-99.99,,,-99.99,,2013-06-29 17:52:00,
2013-06-29 11:01:00,86.0,65.0,29.84,West,260,1.0,-999.0,49,-99.99,,,-99.99,,2013-06-29 18:01:00,
2013-06-29 11:11:00,87.0,65.0,29.84,West,267,1.0,-999.0,48,-99.99,,,-99.99,,2013-06-29 18:11:00,
2013-06-29 11:22:00,88.0,64.0,29.83,West,265,1.0,-999.0,45,-99.99,,,-99.99,,2013-06-29 18:22:00,
2013-06-29 11:33:00,88.0,64.0,29.83,West,265,1.0,-999.0,45,-99.99,,,-99.99,,2013-06-29 18:33:00,
2013-06-29 11:43:00,89.0,64.0,29.83,WSW,244,4.0,-999.0,44,-99.99,,,-99.99,,2013-06-29 18:43:00,
2013-06-29 11:52:00,89.0,64.0,29.83,SW,224,3.0,-999.0,43,-99.99,,,-99.99,,2013-06-29 18:52:00,
2013-06-29 12:01:00,89.0,64.0,29.83,SW,224,3.0,-999.0,43,-99.99,,,-99.99,,2013-06-29 19:01:00,
2013-06-29 12:12:00,88.0,65.0,29.83,WSW,258,4.0,-999.0,46,-99.99,,,-99.99,,2013-06-29 19:12:00,
2013-06-29 12:22:00,89.0,65.0,29.83,WSW,258,3.0,-999.0,45,-99.99,,,-99.99,,2013-06-29 19:22:00,
2013-06-29 12:34:00,89.0,65.0,29.83,WSW,258,3.0,-999.0,45,-99.99,,,-99.99,,2013-06-29 19:34:00,
2013-06-29 12:43:00,90.0,66.0,29.82,WSW,252,3.0,-999.0,45,-99.99,,,-99.99,,2013-06-29 19:43:00,
2013-06-29 12:53:00,91.0,65.0,29.83,WSW,246,3.0,-999.0,42,-99.99,,,-99.99,,2013-06-29 19:53:00,
2013-06-29 13:01:00,91.0,65.0,29.83,WSW,246,3.0,-999.0,42,-99.99,,,-99.99,,2013-06-29 20:01:00,
2013-06-29 13:11:00,92.0,65.0,29.83,WSW,246,3.0,-999.0,41,-99.99,,,-99.99,,2013-06-29 20:11:00,
2013-06-29 13:22:00,92.0,65.0,29.82,WSW,238,5.0,-999.0,41,-99.99,,,-99.99,,2013-06-29 20:22:00,
2013-06-29 13:33:00,92.0,65.0,29.82,WSW,238,5.0,-999.0,41,-99.99,,,-99.99,,2013-06-29 20:33:00,
2013-06-29 13:43:00,92.0,66.0,29.82,West,271,3.0,-999.0,42,-99.99,,,-99.99,,2013-06-29 20:43:00,
2013-06-29 13:52:00,91.0,65.0,29.82,West,262,5.0,-999.0,42,-99.99,,,-99.99,,2013-06-29 20:52:00,
2013-06-29 14:01:00,91.0,65.0,29.82,West,262,5.0,-999.0,42,-99.99,,,-99.99,,2013-06-29 21:01:00,
2013-06-29 14:11:00,91.0,64.0,29.82,WSW,257,3.0,-999.0,41,-99.99,,,-99.99,,2013-06-29 21:11:00,
2013-06-29 14:22:00,91.0,64.0,29.82,WSW,238,2.0,-999.0,41,-99.99,,,-99.99,,2013-06-29 21:22:00,
2013-06-29 14:32:00,91.0,64.0,29.82,WSW,238,2.0,-999.0,41,-99.99,,,-99.99,,2013-06-29 21:32:00,
2013-06-29 14:42:00,91.0,63.0,29.81,WSW,238,2.0,-999.0,40,-99.99,,,-99.99,,2013-06-29 21:42:00,
2013-06-29 14:52:00,92.0,63.0,29.80,WSW,250,1.0,-999.0,39,-99.99,,,-99.99,,2013-06-29 21:52:00,
2013-06-29 15:01:00,92.0,63.0,29.80,WSW,250,1.0,-999.0,39,-99.99,,,-99.99,,2013-06-29 22:01:00,
2013-06-29 15:11:00,92.0,63.0,29.80,West,276,2.0,-999.0,39,-99.99,,,-99.99,,2013-06-29 22:11:00,
2013-06-29 15:21:00,92.0,63.0,29.80,WSW,244,3.0,-999.0,39,-99.99,,,-99.99,,2013-06-29 22:21:00,
2013-06-29 15:33:00,92.0,63.0,29.80,WSW,244,3.0,-999.0,39,-99.99,,,-99.99,,2013-06-29 22:33:00,
2013-06-29 15:43:00,91.0,63.0,29.80,WSW,244,2.0,-999.0,40,-99.99,,,-99.99,,2013-06-29 22:43:00,
2013-06-29 15:53:00,91.0,63.0,29.79,West,281,2.0,-999.0,39,-99.99,,,-99.99,,2013-06-29 22:53:00,
2013-06-29 16:02:00,91.0,63.0,29.79,West,281,2.0,-999.0,39,-99.99,,,-99.99,,2013-06-29 23:02:00,
2013-06-29 16:12:00,91.0,63.0,29.79,WNW,302,2.0,-999.0,39,-99.99,,,-99.99,,2013-06-29 23:12:00,
2013-06-29 16:23:00,91.0,63.0,29.79,WNW,302,2.0,-999.0,39,-99.99,,,-99.99,,2013-06-29 23:23:00,
2013-06-29 16:33:00,91.0,64.0,29.78,WNW,292,2.0,-999.0,41,-99.99,,,-99.99,,2013-06-29 23:33:00,
2013-06-29 16:43:00,91.0,64.0,29.78,West,273,1.0,-999.0,41,-99.99,,,-99.99,,2013-06-29 23:43:00,
2013-06-29 16:52:00,91.0,64.0,29.77,WNW,294,1.0,-999.0,41,-99.99,,,-99.99,,2013-06-29 23:52:00,
2013-06-29 17:01:00,91.0,64.0,29.77,WNW,294,1.0,-999.0,41,-99.99,,,-99.99,,2013-06-30 00:01:00,
2013-06-29 17:11:00,90.0,63.0,29.77,WNW,288,1.0,-999.0,41,-99.99,,,-99.99,,2013-06-30 00:11:00,
2013-06-29 17:22:00,90.0,64.0,29.76,WSW,250,1.0,-999.0,42,-99.99,,,-99.99,,2013-06-30 00:22:00,
2013-06-29 17:33:00,90.0,64.0,29.76,WSW,250,1.0,-999.0,42,-99.99,,,-99.99,,2013-06-30 00:33:00,
2013-06-29 17:42:00,90.0,63.0,29.76,West,261,1.0,-999.0,41,-99.99,,,-99.99,,2013-06-30 00:42:00,
2013-06-29 17:52:00,89.0,64.0,29.76,West,274,1.0,-999.0,43,-99.99,,,-99.99,,2013-06-30 00:52:00,
2013-06-29 18:01:00,89.0,64.0,29.76,West,274,1.0,-999.0,43,-99.99,,,-99.99,,2013-06-30 01:01:00,
2013-06-29 18:11:00,89.0,64.0,29.76,West,261,0.0,-999.0,43,-99.99,,,-99.99,,2013-06-30 01:11:00,
2013-06-29 18:22:00,89.0,64.0,29.76,West,260,0.0,-999.0,43,-99.99,,,-99.99,,2013-06-30 01:22:00,
2013-06-29 18:33:00,89.0,64.0,29.76,West,260,0.0,-999.0,43,-99.99,,,-99.99,,2013-06-30 01:33:00,
2013-06-29 18:44:00,88.0,64.0,29.75,WSW,255,0.0,-999.0,45,-99.99,,,-99.99,,2013-06-30 01:44:00,
2013-06-29 18:53:00,88.0,65.0,29.76,WSW,252,0.0,-999.0,46,-99.99,,,-99.99,,2013-06-30 01:53:00,
2013-06-29 19:02:00,88.0,65.0,29.76,WSW,252,0.0,-999.0,46,-99.99,,,-99.99,,2013-06-30 02:02:00,
2013-06-29 19:11:00,87.0,64.0,29.75,WSW,250,0.0,-999.0,47,-99.99,,,-99.99,,2013-06-30 02:11:00,
2013-06-29 19:23:00,86.0,64.0,29.76,WSW,250,0.0,-999.0,48,-99.99,,,-99.99,,2013-06-30 02:23:00,
2013-06-29 19:33:00,86.0,64.0,29.76,WSW,250,0.0,-999.0,48,-99.99,,,-99.99,,2013-06-30 02:33:00,
2013-06-29 19:43:00,86.0,64.0,29.75,WSW,251,0.0,-999.0,48,-99.99,,,-99.99,,2013-06-30 02:43:00,
2013-06-29 19:53:00,85.0,64.0,29.75,WSW,252,0.0,-999.0,49,-99.99,,,-99.99,,2013-06-30 02:53:00,
2013-06-29 20:01:00,85.0,64.0,29.75,WSW,252,0.0,-999.0,49,-99.99,,,-99.99,,2013-06-30 03:01:00,
2013-06-29 20:11:00,84.0,64.0,29.75,WSW,254,0.0,-999.0,51,-99.99,,,-99.99,,2013-06-30 03:11:00,
2013-06-29 20:22:00,82.0,63.0,29.76,WSW,255,0.0,-999.0,53,-99.99,,,-99.99,,2013-06-30 03:22:00,
2013-06-29 20:33:00,82.0,63.0,29.76,WSW,255,0.0,-999.0,53,-99.99,,,-99.99,,2013-06-30 03:33:00,
2013-06-29 20:43:00,81.0,63.0,29.76,WSW,255,0.0,-999.0,55,-99.99,,,-99.99,,2013-06-30 03:43:00,
2013-06-29 20:53:00,80.0,63.0,29.76,WSW,255,0.0,-999.0,56,-99.99,,,-99.99,,2013-06-30 03:53:00,
2013-06-29 21:01:00,80.0,63.0,29.76,WSW,255,0.0,-999.0,56,-99.99,,,-99.99,,2013-06-30 04:01:00,
2013-06-29 21:12:00,79.0,63.0,29.76,WSW,255,0.0,-999.0,58,-99.99,,,-99.99,,2013-06-30 04:12:00,
2013-06-29 21:22:00,79.0,63.0,29.76,WSW,255,0.0,-999.0,58,-99.99,,,-99.99,,2013-06-30 04:22:00,
2013-06-29 21:33:00,79.0,63.0,29.76,WSW,255,0.0,-999.0,58,-99.99,,,-99.99,,2013-06-30 04:33:00,
2013-06-29 21:43:00,78.0,62.0,29.76,WSW,255,0.0,-999.0,59,-99.99,,,-99.99,,2013-06-30 04:43:00,
2013-06-29 21:52:00,78.0,63.0,29.76,WSW,254,0.0,-999.0,60,-99.99,,,-99.99,,2013-06-30 04:52:00,
2013-06-29 22:02:00,78.0,63.0,29.76,WSW,254,0.0,-999.0,60,-99.99,,,-99.99,,2013-06-30 05:02:00,
2013-06-29 22:12:00,77.0,63.0,29.76,WSW,255,0.0,-999.0,61,-99.99,,,-99.99,,2013-06-30 05:12:00,
2013-06-29 22:22:00,76.0,62.0,29.75,WSW,255,0.0,-999.0,63,-99.99,,,-99.99,,2013-06-30 05:22:00,
2013-06-29 22:33:00,76.0,62.0,29.75,WSW,255,0.0,-999.0,63,-99.99,,,-99.99,,2013-06-30 05:33:00,
2013-06-29 22:43:00,75.0,62.0,29.75,WSW,255,0.0,-999.0,63,-99.99,,,-99.99,,2013-06-30 05:43:00,
2013-06-29 22:53:00,76.0,63.0,29.75,WSW,255,0.0,-999.0,65,-99.99,,,-99.99,,2013-06-30 05:53:00,
2013-06-29 23:02:00,76.0,63.0,29.75,WSW,255,0.0,-999.0,65,-99.99,,,-99.99,,2013-06-30 06:02:00,
2013-06-29 23:12:00,75.0,62.0,29.75,WSW,255,0.0,-999.0,65,-99.99,,,-99.99,,2013-06-30 06:12:00,
2013-06-29 23:22:00,75.0,63.0,29.75,WSW,254,0.0,-999.0,66,-99.99,,,-99.99,,2013-06-30 06:22:00,
2013-06-29 23:33:00,75.0,63.0,29.75,WSW,254,0.0,-999.0,66,-99.99,,,-99.99,,2013-06-30 06:33:00,
2013-06-29 23:43:00,74.0,62.0,29.75,WSW,254,0.0,-999.0,66,-99.99,,,-99.99,,2013-06-30 06:43:00,
2013-06-29 23:53:00,74.0,62.0,29.75,WSW,255,0.0,-999.0,67,-99.99,,,-99.99,,2013-06-30 06:53:00,